This demonstration page uses our WeatherBlox Daily Observations layout. Learn more.

Left ArrowRight Arrow

34.02893, -84.19858

Hourly Observations for December 16, 2018

Temp ( °F °C ) Dew Point ( °F °C ) Humidity (%) Winds ( mph kmh ) Pressure ( in mb ) Visibility ( mi km ) Precip ( " mm )
12:07 am 00:07 Cloudy 47 8.3 45 7.2 93 93 WSW 7 11 30.06 1018 7 11 0.00 0.00
12:37 am 00:37 Cloudy 47 8.3 45 7.2 93 93 W 6 9 30.06 1018 8 13 0.00 0.00
12:53 am 00:53 Cloudy 47 8.3 45 7.2 93 93 W 7 11 30.02 1017 8 13 0.00 0.00
1:53 am 01:53 Cloudy 47 8.3 45 7.2 93 93 W 5 7 30.04 1017 9 14 0.00 0.00
2:40 am 02:40 Cloudy 47 8.3 44 6.7 90 90 W 7 11 30.06 1018 10 16 0.00 0.00
2:53 am 02:53 Cloudy 47 8.3 44 6.7 90 90 WNW 8 13 30.05 1018 10 16 0.00 0.00
3:11 am 03:11 Cloudy 47 8.3 44 6.7 90 90 WSW 6 9 30.06 1018 10 16 0.00 0.00
3:20 am 03:20 Cloudy 47 8.3 44 6.7 90 90 WNW 6 9 30.06 1018 10 16 0.00 0.00
3:53 am 03:53 Cloudy 46 7.8 44 6.7 93 93 W 5 7 30.04 1017 10 16 0.00 0.00
4:53 am 04:53 Cloudy 47 8.3 43 6.1 86 86 W 8 13 30.05 1018 10 16 0.00 0.00
5:53 am 05:53 Cloudy 47 8.3 43 6.1 86 86 W 10 17 30.07 1018 10 16 0.00 0.00
6:53 am 06:53 Cloudy 46 7.8 43 6.1 89 89 W 7 11 30.08 1019 10 16 0.00 0.00
7:11 am 07:11 Cloudy 46 7.8 43 6.1 89 89 WSW 6 9 30.12 1020 10 16 0.00 0.00
7:53 am 07:53 Cloudy 46 7.8 43 6.1 89 89 WNW 6 9 30.11 1020 9 14 0.00 0.00
8:30 am 08:30 Cloudy 46 7.8 44 6.7 93 93 W 5 7 30.12 1020 7 11 0.00 0.00
8:53 am 08:53 Cloudy with Mist and Fog 46 7.8 44 6.7 93 93 W 6 9 30.12 1020 3 5 0.00 0.00
9:00 am 09:00 Cloudy with Mist and Fog 46 7.8 44 6.7 93 93 W 5 7 30.12 1020 2 3 0.00 0.00
9:07 am 09:07 Cloudy with Mist and Fog 46 7.8 45 7.2 96 96 W 5 7 30.12 1020 2 3 0.00 0.00
9:35 am 09:35 Cloudy with Mist and Fog 47 8.3 45 7.2 93 93 W 7 11 30.15 1021 2 2 0.00 0.00
9:53 am 09:53 Cloudy with Mist and Fog 47 8.3 45 7.2 93 93 W 7 11 30.14 1021 2 3 0.00 0.00
10:01 am 10:01 Cloudy with Mist and Fog 47 8.3 46 7.8 97 97 W 9 15 30.15 1021 2 3 0.00 0.00
10:48 am 10:48 Cloudy with Mist and Fog 48 9 46 8 94 94 WNW 8 13 30.15 1021 3 5 0.00 0.00
10:53 am 10:53 Cloudy with Mist and Fog 48 8.9 46 7.8 93 93 W 9 15 30.13 1020 2 3 0.00 0.00
11:53 am 11:53 Cloudy 49 9.4 47 8.3 93 93 WNW 10 17 30.12 1020 10 16 0.02 0.51
12:11 pm 12:11 Cloudy 49 9.4 46 7.8 90 90 NW 10 17 30.09 1019 10 16 0.00 0.00
12:53 pm 12:53 Cloudy 50 10 46 7.8 86 86 WNW 9 15 30.10 1019 10 16 0.00 0.00
1:53 pm 13:53 Cloudy 50 10 44 6.7 80 80 NW 10 17 30.09 1019 10 16 0.00 0.00
2:53 pm 14:53 Cloudy 50 10 43 6.1 77 77 W 8 13 30.09 1019 10 16 0.00 0.00
3:53 pm 15:53 Cloudy 50 10 43 6.1 77 77 NW 14 22 30.10 1019 10 16 0.00 0.00
4:53 pm 16:53 Cloudy 50 10 43 6.1 77 77 WNW 9 15 30.13 1020 10 16 0.00 0.00
5:10 pm 17:10 Cloudy with Haze 51 10.6 43 6.1 74 74 NW 9 15 30.12 1020 2 2 0.00 0.00
5:25 pm 17:25 Cloudy 50 10 43 6.1 77 77 WNW 9 15 30.09 1019 10 16 0.00 0.00
5:53 pm 17:53 Cloudy 50 10 43 6.1 77 77 NW 10 17 30.11 1020 10 16 0.00 0.00
6:53 pm 18:53 Cloudy 50 10 43 6.1 77 77 NW 13 20 30.13 1020 10 16 0.00 0.00
7:53 pm 19:53 Cloudy 49 9.4 43 6.1 80 80 WNW 16 26 30.14 1021 10 16 0.00 0.00
8:53 pm 20:53 Cloudy 49 9.4 43 6.1 80 80 NW 15 24 30.16 1021 10 16 0.00 0.00
9:53 pm 21:53 Cloudy 48 8.9 43 6.1 83 83 NW 16 26 30.17 1022 10 16 0.00 0.00
10:00 pm 22:00 Cloudy 48 8.9 43 6.1 83 83 NW 15 24 30.18 1022 10 16 0.00 0.00
10:53 pm 22:53 Cloudy 48 8.9 44 6.7 86 86 NW 14 22 30.17 1022 10 16 0.00 0.00
11:53 pm 23:53 Mostly Cloudy 48 8.9 44 6.7 86 86 NNW 12 19 30.16 1021 10 16 0.00 0.00

Powered by AerisWeather